Location: Melbourne
(37.8666°S, 145.1333°E)
Time: 04:09:00
(UTC+11:00)

HST - Visible Passes

Search period start: 01 November 2014 00:00
Search period end: 11 November 2014 00:00
Orbit: 546 x 550 km, 28.5° (Epoch: 30 October)

Date Brightness Start Highest point End Pass type
(mag) Time Alt. Az. Time Alt. Az. Time Alt. Az.
01 Nov 2.9 05:23:04 10° NNW 05:25:42 16° NNE 05:28:20 10° NE visible
02 Nov 2.7 05:15:40 11° NNW 05:18:15 18° N 05:21:11 10° NE visible
03 Nov 2.5 05:08:36 14° NNW 05:10:48 20° N 05:13:55 10° NE visible
04 Nov 2.4 05:01:32 17° NNW 05:03:20 22° N 05:06:35 10° NE visible
05 Nov 2.3 04:54:28 19° NNW 04:55:53 22° N 04:59:12 10° NE visible
06 Nov 2.2 04:47:27 21° NNW 04:48:25 23° N 04:51:45 10° NE visible
07 Nov 2.2 04:40:28 22° NNW 04:40:56 22° N 04:44:14 10° NE visible
08 Nov 2.3 04:33:34 21° N 04:33:34 21° N 04:36:40 10° NE visible
09 Nov 2.5 04:26:47 19° N 04:26:47 19° N 04:29:01 10° NE visible
10 Nov 2.9 04:20:07 14° NNE 04:20:07 14° NNE 04:21:17 10° NNE visible
